Lapse_Rate
6.5 6.3 6.2 6.2 6.2 6.0 5.9 5.7 5.6 5.7 5.8 5.7 6.0 6.2 6.2 6.2 6.3 6.4 6.4 6.6 6.4 6.3 6.3 6.2 6.2 6.2 6.3 6.6 6.7 6.8 6.9 7.0 7.1 7.2 7.2 7.2 7.4 7.4 7.3 7.3 7.4 7.6 7.6
6.8 6.8 6.7 6.5 6.3 6.2 6.0 6.0 5.9 5.9 6.0 5.8 5.9 6.2 6.2 6.2 6.4 6.4 6.4 6.5 6.5 6.6 6.4 6.3 6.2 6.2 6.2 6.4 6.6 6.7 6.8 6.9 7.0 7.1 7.1 7.1 7.2 7.3 7.5 7.6 7.5 7.4 7.3
6.9 6.8 6.6 6.4 6.3 6.3 6.2 6.0 6.0 6.0 6.0 6.1 6.1 6.4 6.3 6.2 6.3 6.4 6.5 6.6 6.7 6.7 6.5 6.5 6.3 6.3 6.3 6.3 6.5 6.6 6.7 6.9 7.1 7.3 7.3 7.2 7.3 7.3 7.5 7.7 7.8 7.7 7.7
7.0 6.8 6.7 6.6 6.4 6.3 6.4 6.1 6.1 6.1 6.1 6.3 6.3 6.4 6.3 6.2 6.4 6.5 6.7 6.8 6.8 6.8 6.6 6.5 6.5 6.5 6.5 6.5 6.7 6.8 6.9 7.0 7.1 7.3 7.3 7.4 7.4 7.5 7.7 7.8 7.6 7.3 7.3
7.1 6.9 6.7 6.8 6.7 6.4 6.4 6.3 6.3 6.3 6.3 6.4 6.4 6.4 6.3 6.3 6.5 6.4 6.6 6.7 6.7 6.8 6.8 6.7 6.6 6.6 6.6 6.7 6.7 6.9 7.0 7.2 7.3 7.3 7.5 7.5 7.6 7.7 7.7 7.7 7.7 7.7 7.7
7.6 7.2 7.2 6.9 6.8 6.7 6.6 6.4 6.3 6.4 6.4 6.4 6.5 6.5 6.4 6.5 6.5 6.4 6.4 6.4 6.6 6.7 6.8 6.8 6.7 6.7 6.8 6.8 6.9 7.0 7.2 7.4 7.5 7.5 7.5 7.7 7.9 7.8 7.6 7.6 7.6 8.0 8.1
8.0 7.6 7.2 7.0 6.8 6.9 6.7 6.5 6.4 6.3 6.3 6.5 6.5 6.5 6.6 6.7 6.5 6.3 6.3 6.3 6.4 6.5 6.6 6.7 6.9 7.0 7.0 7.1 7.2 7.3 7.5 7.6 7.7 7.8 8.0 7.9 7.9 7.7 7.8 8.0 8.1 8.1 8.0
8.2 7.8 7.4 7.4 7.1 6.9 6.7 6.5 6.5 6.4 6.2 6.4 6.5 6.6 6.7 6.8 6.5 6.4 6.2 6.3 6.4 6.5 6.6 6.9 7.0 7.1 7.2 7.2 7.4 7.5 7.6 7.6 7.7 7.8 8.0 8.1 8.0 8.0 8.0 8.1 8.1 7.8 7.9
8.5 8.1 7.7 7.4 7.3 7.1 6.9 6.6 6.5 6.3 6.1 6.3 6.5 6.6 6.8 6.8 6.6 6.4 6.3 6.3 6.5 6.8 6.8 7.0 7.2 7.4 7.4 7.3 7.5 7.8 7.7 7.9 7.8 7.9 7.9 8.1 8.2 8.1 7.9 7.8 7.7 7.5 7.7
8.7 8.5 8.3 7.7 7.5 7.3 7.2 6.8 6.5 6.3 6.3 6.3 6.5 6.6 6.7 6.8 6.6 6.5 6.4 6.4 6.9 7.1 7.2 7.5 7.6 7.7 7.7 7.7 7.8 7.8 8.0 8.2 8.0 7.9 7.9 8.1 8.1 8.1 7.9 7.8 7.6 7.2 7.2
9.0 8.8 8.5 8.2 7.7 7.3 7.0 6.7 6.4 6.2 6.1 6.3 6.5 6.7 6.8 6.8 6.8 6.7 6.7 6.9 7.5 7.7 7.7 7.8 8.0 8.0 8.0 8.0 8.0 8.0 8.2 8.2 8.2 8.0 8.0 7.9 8.0 7.8 7.7 7.4 7.2 6.5 6.8
8.9 8.9 8.5 8.5 7.9 7.5 7.3 7.1 6.5 6.2 6.1 6.3 6.5 6.9 7.0 7.0 7.0 7.1 7.1 7.4 7.8 8.0 8.2 8.3 8.2 8.2 8.3 8.2 7.7 7.8 7.8 7.9 8.1 8.2 8.2 8.2 8.1 8.1 7.7 7.8 7.1 7.0 6.9
9.1 9.1 8.7 8.5 8.2 7.9 7.4 7.2 6.7 6.4 6.3 6.5 6.9 6.9 7.1 7.3 7.5 7.5 7.6 7.6 7.9 8.5 8.7 8.5 8.4 8.1 8.2 8.2 8.0 8.1 8.1 8.2 8.2 8.2 8.3 8.2 8.2 8.0 7.7 7.7 7.4 6.8 6.8
9.0 9.1 8.8 8.6 8.2 7.7 7.4 7.1 6.8 6.6 6.7 6.9 7.0 7.2 7.3 7.5 7.9 8.0 8.0 7.9 8.1 8.3 8.3 8.1 7.9 8.0 8.0 8.1 8.3 8.3 8.3 8.5 8.5 8.3 8.2 8.3 7.8 7.7 7.8 7.4 7.2 6.8 6.8
8.9 8.9 8.6 8.5 8.3 7.9 7.4 7.2 7.2 6.6 6.7 7.1 7.0 7.2 7.5 7.8 8.2 8.3 8.1 8.3 8.3 8.2 7.9 7.7 7.8 7.9 8.0 8.0 8.1 8.1 8.2 8.3 8.3 8.4 8.2 7.7 7.5 7.2 6.4 6.7 6.8 6.9 6.8
9.0 8.8 8.5 8.2 8.2 8.0 7.9 7.7 7.6 7.6 7.6 7.5 7.5 7.5 7.2 7.4 7.5 8.0 8.2 8.3 8.2 8.2 8.0 8.1 8.2 8.1 8.0 8.0 8.0 8.1 8.1 8.0 8.1 8.1 7.7 7.3 6.9 6.8 6.7 6.7 6.7 6.8 6.8
8.8 8.7 8.7 8.6 8.3 8.3 8.1 7.7 7.9 8.0 7.9 7.6 7.6 7.7 7.6 7.9 8.1 7.8 7.9 7.9 8.2 8.1 8.1 8.2 8.0 7.8 7.8 8.0 7.9 7.9 7.8 7.8 7.7 7.7 7.3 7.0 6.7 6.8 6.8 6.8 6.7 6.7 6.6
8.2 8.5 8.4 7.1 8.5 8.4 8.2 8.3 8.5 8.6 8.2 8.2 8.0 7.6 7.3 7.4 7.3 7.3 7.3 7.3 7.8 8.2 8.1 8.0 7.9 7.9 7.8 7.8 7.6 7.5 7.5 7.5 7.4 7.4 7.1 6.6 6.6 6.7 6.7 6.7 6.6 6.5 6.3
7.0 7.0 7.0 7.0 8.0 7.9 8.1 8.3 8.1 7.9 7.6 7.9 7.8 7.6 7.8 7.5 7.5 6.9 7.4 7.2 7.5 7.9 7.7 7.6 7.7 7.6 7.8 7.8 7.6 7.2 6.9 6.8 6.7 6.6 6.6 6.4 6.6 6.5 6.5 6.4 6.3 6.2 6.1
6.4 6.6 7.2 7.3 7.1 7.6 7.9 8.4 7.5 7.9 7.7 8.2 7.9 7.8 7.5 6.6 7.5 7.5 7.1 7.5 7.4 7.3 7.3 7.5 7.6 7.7 7.7 7.4 7.2 6.8 6.4 6.3 5.7 5.9 6.2 6.3 6.3 6.3 6.2 6.1 6.0 5.9 5.9
7.2 7.0 6.9 7.1 7.6 7.0 7.2 8.0 7.5 7.6 6.4 6.8 7.4 8.2 7.8 7.5 7.8 7.2 7.5 7.5 7.4 7.3 7.3 7.4 7.4 7.4 7.3 6.8 6.6 6.4 6.1 5.8 6.0 6.1 6.1 6.1 6.1 5.9 5.7 5.7 5.6 5.7 5.7
6.3 6.8 6.6 6.8 6.8 6.9 7.3 7.4 7.8 7.5 7.8 6.8 6.9 7.3 6.9 7.4 7.2 7.1 7.2 7.2 7.1 7.0 7.1 7.2 7.0 6.8 6.5 6.1 6.1 6.0 5.9 5.9 6.1 6.0 5.9 5.9 5.9 5.8 5.7 5.7 5.7 5.7 5.6
6.2 6.4 6.9 6.9 6.9 7.1 7.3 7.0 7.4 7.1 7.2 7.1 6.7 7.1 6.7 7.1 7.0 6.9 7.2 7.2 6.9 6.8 6.4 6.3 6.2 5.9 5.9 6.1 6.0 5.9 6.0 5.9 5.9 5.9 5.8 5.6 5.6 5.6 5.6 5.7 5.7 5.7 5.5
6.1 5.9 6.3 6.4 6.4 6.4 6.5 6.8 6.8 6.7 7.1 7.3 7.4 7.6 7.5 7.1 7.2 6.9 6.5 6.2 6.1 6.1 6.2 6.3 6.1 6.1 6.1 6.2 6.1 6.1 5.8 5.9 5.8 5.8 5.7 5.6 5.6 5.5 5.6 5.6 5.5 5.4 5.3
5.2 5.5 5.4 6.1 6.5 6.3 6.1 6.6 6.6 6.4 6.9 6.6 6.6 6.4 6.5 6.2 6.4 6.3 6.5 6.5 6.4 6.4 6.3 5.8 6.1 6.3 6.2 6.2 6.1 5.8 5.6 5.4 5.3 5.3 5.3 5.2 5.3 5.5 5.5 5.6 5.4 5.2 5.0
5.9 5.8 6.0 6.5 6.6 6.5 6.8 6.5 6.2 6.5 6.3 6.1 6.4 6.2 6.0 6.0 6.3 6.5 6.4 6.3 6.0 5.8 5.6 5.6 5.8 6.0 5.9 5.9 5.8 5.6 5.5 5.4 5.2 5.0 4.8 4.8 4.9 5.0 5.2 5.2 5.1 5.0 4.6
Wind_Speed
22 21 20 19 18 17 13 13 12 11 9 10 9 10 11 11 11 10 10 7 10 8 8 6 8 7 7 6 7 6 6 6 7 8 7 7 4 6 9 11 14 16 18
22 20 21 19 19 18 17 15 14 13 12 10 11 11 11 12 12 12 12 10 11 11 11 9 10 8 9 9 8 7 7 6 7 8 9 9 9 9 9 9 11 16 16
22 23 21 21 20 19 19 17 16 15 14 15 13 12 12 12 12 12 12 12 11 11 11 11 11 10 9 9 8 9 8 8 8 9 10 9 8 9 9 9 9 12 16
24 24 22 22 21 20 18 18 17 16 15 15 14 14 14 13 13 13 13 13 12 12 11 11 11 11 11 10 10 9 9 9 10 10 10 10 9 7 7 8 8 7 9
22 22 22 21 21 19 19 18 17 17 16 15 15 15 15 14 13 14 13 13 13 12 12 12 13 12 11 11 10 10 10 10 10 10 10 9 9 8 9 10 11 10 9
21 23 21 20 20 20 20 19 18 17 17 16 16 15 15 14 15 15 14 13 13 13 12 12 12 10 14 12 11 12 11 9 10 10 11 12 11 11 10 10 12 13 13
19 20 19 20 20 20 20 19 19 18 16 16 16 16 16 16 12 15 17 14 12 13 12 11 12 12 13 13 15 16 16 14 14 13 14 13 14 12 12 12 12 12 12
20 19 20 20 21 19 19 20 19 18 18 16 16 16 15 14 14 14 15 15 14 14 12 13 13 13 11 9 11 12 13 13 14 12 14 14 12 12 12 11 12 11 9
20 20 21 21 21 20 20 20 18 17 16 16 16 17 17 16 17 16 14 14 15 15 14 15 14 13 13 11 13 14 14 13 18 22 23 25 24 21 17 11 11 11 10
21 23 20 20 20 21 20 19 17 16 17 15 17 16 17 16 14 17 17 14 14 13 14 15 15 16 12 10 12 13 14 13 12 13 11 8 14 14 23 10 7 7 7
20 18 18 19 20 19 17 16 17 17 16 16 16 15 16 17 16 19 20 15 13 12 13 12 13 20 21 19 15 14 14 10 12 9 8 8 8 8 5 5 8 7 7
18 18 18 18 16 15 17 16 16 15 14 14 14 14 14 15 17 15 20 21 15 14 13 11 11 11 18 19 13 12 11 8 10 10 10 10 8 8 8 8 10 10 12
17 18 17 17 16 14 16 15 13 14 14 14 14 14 13 13 14 17 19 20 21 13 13 3 9 8 8 5 11 11 9 7 8 7 8 7 7 7 8 7 13 15 14
16 17 15 16 16 15 14 14 14 14 14 13 13 13 13 12 12 11 12 11 14 12 14 13 10 2 0 1 4 5 8 8 7 6 5 5 7 6 8 7 7 7 7
15 15 15 15 16 14 11 11 13 3 5 13 12 13 12 12 13 13 12 12 12 14 12 11 11 11 11 8 7 6 4 4 5 3 5 5 5 7 7 7 6 6 7
15 13 13 15 14 12 10 6 12 13 13 11 11 5 4 10 12 7 17 12 13 16 11 10 9 7 7 5 4 3 3 4 5 6 6 6 6 6 6 5 5 6 7
13 15 14 13 14 12 13 12 10 4 8 15 12 13 12 9 8 11 12 14 13 14 9 8 5 4 3 3 3 4 4 5 5 3 6 6 5 5 3 6 6 6 6
9 2 13 8 10 9 7 8 9 9 7 4 10 10 10 7 5 7 10 10 4 2 5 6 5 5 5 4 3 4 4 5 2 3 3 5 5 6 6 5 5 6 6
3 7 9 9 12 14 11 10 9 8 6 5 4 3 10 9 1 3 6 3 8 7 7 5 5 6 5 4 4 2 1 3 3 2 2 4 5 5 5 5 5 3 5
8 10 10 5 7 9 8 9 5 8 6 6 6 6 6 4 2 1 1 3 3 4 6 6 6 6 5 4 3 2 3 2 1 2 2 3 3 3 5 4 4 5 5
3 8 5 5 5 3 7 10 6 8 6 5 8 8 13 2 4 3 3 1 5 6 6 6 6 6 5 4 4 4 3 2 2 3 3 3 3 4 3 5 5 6 7
6 7 7 7 6 7 6 5 8 6 7 8 7 7 6 3 4 3 5 6 5 5 5 5 5 5 4 3 2 1 1 2 3 4 4 5 5 5 4 3 7 8 8
5 3 7 9 7 7 7 7 7 6 7 8 8 5 4 4 6 5 5 7 6 6 5 6 6 4 2 4 4 5 5 6 5 3 4 4 5 5 6 5 7 7 6
7 6 8 8 8 10 8 8 8 8 7 7 5 6 8 7 8 6 6 5 6 6 6 5 5 7 5 8 10 13 10 8 6 8 8 6 5 5 6 6 6 8 7
4 3 4 6 8 8 11 10 9 8 5 5 6 8 7 5 5 7 7 6 6 6 7 8 11 12 14 14 13 13 13 16 10 13 9 8 7 6 6 6 7 7 8
7 8 6 8 7 9 8 9 8 10 9 7 7 7 7 5 6 5 4 7 5 8 8 9 11 11 12 13 14 16 19 19 16 23 15 8 7 7 8 9 12 10 12
Wind_Direction
199 197 198 196 199 205 211 203 220 220 220 211 226 208 215 215 211 205 241 221 198 220 258 236 214 258 269 249 226 242 257 255 266 275 292 309 322 234 261 272 282 278 267
201 198 198 195 198 199 206 209 202 211 217 218 215 212 216 215 208 206 215 226 218 207 219 234 235 230 227 262 279 280 273 292 284 289 291 290 280 269 255 242 255 275 286
199 198 197 199 197 201 198 205 204 207 210 217 209 211 210 217 217 211 214 223 229 220 230 228 230 232 240 249 240 257 251 231 239 253 270 276 285 287 274 250 240 250 257
195 201 199 199 199 199 200 198 205 203 205 212 213 206 208 215 218 220 213 219 225 229 231 235 233 232 232 230 239 251 259 269 276 274 273 274 273 280 275 268 266 285 300
194 199 198 198 200 198 200 198 202 204 205 209 211 211 204 214 218 217 220 215 221 231 236 228 232 237 236 236 244 237 246 249 256 264 271 282 290 301 321 317 296 289 304
195 199 195 192 196 198 197 197 198 203 206 206 210 211 210 216 211 203 210 221 223 223 230 235 241 227 228 230 232 253 264 276 279 282 286 286 292 290 292 306 311 306 299
204 194 197 190 196 198 196 194 198 201 203 208 210 211 212 216 209 198 201 223 225 225 228 233 239 239 217 230 221 230 241 244 238 258 266 268 281 288 296 294 287 291 300
202 195 197 193 196 196 198 199 198 197 202 204 209 212 214 214 204 197 198 217 229 240 236 227 233 248 259 259 244 241 228 231 228 232 238 253 259 260 255 267 286 290 286
200 204 195 198 193 196 199 200 199 199 200 205 208 210 213 219 198 195 189 219 229 235 237 241 246 247 240 215 245 257 265 268 273 268 256 255 254 265 273 283 282 290 289
206 201 198 198 197 198 198 198 199 201 203 205 209 210 212 218 195 196 192 223 229 231 231 234 233 242 244 213 233 246 253 258 263 273 277 253 251 255 255 251 270 258 272
201 195 195 199 200 199 198 197 199 202 206 207 211 211 213 212 217 191 192 215 230 230 237 241 235 209 219 225 217 243 253 271 277 281 279 279 280 284 249 241 246 254 267
189 195 196 198 202 197 198 195 199 202 208 206 212 209 213 218 211 195 191 207 222 236 246 247 242 216 202 213 213 231 243 259 263 264 270 273 288 289 287 288 288 261 241
184 189 193 191 193 200 193 196 193 199 210 213 208 221 223 215 220 201 194 203 220 233 241 227 75 127 140 177 217 213 206 232 245 252 257 266 272 271 274 273 248 256 257
179 187 185 186 188 203 188 197 204 200 205 213 218 214 224 230 223 211 207 209 226 218 242 261 270 319 92 257 147 186 215 233 241 231 239 246 263 256 250 253 268 281 296
184 187 180 187 186 192 191 203 201 82 209 215 214 217 222 224 224 221 215 192 209 210 212 225 233 234 240 240 239 233 204 197 216 211 228 247 245 246 249 250 282 284 283
189 183 181 187 173 186 160 128 26 114 116 108 95 58 340 18 70 121 114 104 179 161 202 219 217 228 228 232 210 179 202 196 208 210 221 238 262 268 281 285 295 278 278
194 187 179 192 163 181 174 175 154 110 86 82 85 55 38 53 57 96 93 102 120 145 209 216 221 190 154 173 183 180 190 203 214 229 244 255 276 278 256 264 273 280 282
225 183 178 146 140 135 151 158 156 171 159 126 75 91 53 11 123 141 141 122 124 120 176 162 151 153 154 155 174 205 207 187 175 335 323 300 291 282 283 291 310 322 301
166 149 177 141 161 157 153 162 177 184 188 150 151 86 83 81 246 120 352 211 175 168 158 162 152 139 124 103 76 82 54 51 339 311 287 304 355 325 316 316 317 290 305
53 23 37 130 143 134 180 137 177 208 205 182 128 107 102 108 97 132 13 64 76 120 117 129 105 88 95 91 121 115 163 159 246 269 278 290 288 274 277 288 271 275 278
96 61 65 81 64 159 176 146 132 135 106 28 65 93 102 130 123 83 144 153 82 103 112 117 116 116 129 142 157 155 163 178 219 251 245 257 274 285 290 301 284 279 276
32 81 71 56 64 46 59 104 97 104 104 99 92 67 106 231 114 112 85 93 101 101 106 127 117 102 90 90 80 80 107 74 37 359 336 324 312 297 296 322 312 311 308
36 61 87 86 73 55 54 60 68 83 126 97 91 123 128 82 89 104 110 98 105 109 100 94 103 113 179 118 82 49 47 41 21 6 331 322 309 328 343 318 307 303 303
12 28 72 74 92 98 92 71 60 67 72 79 87 87 96 106 96 97 98 109 112 105 94 94 67 74 77 68 48 59 38 14 345 5 341 316 320 341 340 317 317 317 314
88 71 71 99 103 102 100 94 77 71 64 63 68 75 72 83 108 112 127 123 123 119 106 103 95 82 69 59 53 41 20 14 8 345 329 319 317 317 317 332 320 305 306
87 86 85 76 59 71 83 100 99 100 83 62 69 70 72 69 84 92 99 121 122 98 90 79 78 77 73 59 43 35 29 19 9 352 334 309 353 346 2 331 325 334 317